Niagara Falls, NY

12:00 AM EDT on August 29, 2016 (GMT -0400)
Niagara Falls International

Weather History for KIAG - January, 2014

Change the Weather History Date:

Monday, January 20, 2014

  Actual Average Record
Temperature  
Mean Temperature 21 °F -  
Max Temperature 30 °F 26 °F 53 °F (2006)
Min Temperature 10 °F 13 °F 6 °F (2003)
Degree Days  
Heating Degree Days 44    
Moisture  
Dew Point 13 °F    
Average Humidity 74    
Maximum Humidity 93    
Minimum Humidity 58    
Precipitation  
Precipitation 0.01 in - - ()
Snow  
Snow 0.00 in - - ()
Snow Depth 1.00 in    
Sea Level Pressure  
Sea Level Pressure 29.76 in    
Wind  
Wind Speed 13 mph (NW)    
Max Wind Speed 18 mph    
Max Gust Speed 23 mph    
Visibility 6 miles    
Events Rain , Snow    
Averages and records for this station are not official NWS values.
T = Trace of Precipitation, MM = Missing Value Source: NWS Daily Summary

Daily Weather History Graph

Daily Weather History Graph

Search for Another Location

Airport or City:

Trip Planner

Search our weather history database for the weather conditions in past years. The results will help you decide how hot, cold, wet, or windy it might be!

Date:

Astronomy

Jan. 20, 2014 Rise Set
Actual Time 7:41 AM EST 5:12 PM EST
Civil Twilight 7:10 AM EST 5:43 PM EST
Nautical Twilight 6:35 AM EST 6:18 PM EST
Astronomical Twilight 6:01 AM EST 6:52 PM EST
Moon 9:54 PM EST (1/20) 9:32 AM EST (1/20)
Length of Visible Light 10h 33m
Length of Day
9h 30m
Waning Gibbous, 83% of the Moon is Illuminated
Jan 20
Waning Gibbous
Jan 24
Last Quarter
Jan 30
New
Feb 6
First Quarter
Feb 14
Full

Hourly Weather History & Observations

Time (EST) Temp. Windchill Dew Point Humidity Pressure Visibility Wind Dir Wind Speed Gust Speed Precip Events Conditions
12:53 AM 28.9 °F 17.7 °F 21.0 °F 72% 29.55 in 9.0 mi WSW 15.0 mph 23.0 mph N/A   Overcast
1:53 AM 28.9 °F 17.7 °F 21.9 °F 75% 29.54 in 8.0 mi WSW 15.0 mph 23.0 mph 0.00 in   Overcast
2:53 AM 28.9 °F 17.3 °F 24.1 °F 82% 29.54 in 8.0 mi WSW 16.1 mph - 0.00 in   Overcast
3:41 AM 28.4 °F 18.5 °F 24.8 °F 86% 29.48 in 4.0 mi WSW 11.5 mph - 0.00 in Rain Light Freezing Rain
3:47 AM 28.4 °F 18.0 °F 26.6 °F 93% 29.48 in 3.0 mi WSW 12.7 mph - 0.00 in Snow Light Snow
3:48 AM 28.4 °F 17.5 °F 26.6 °F 93% 29.48 in 3.0 mi WSW 13.8 mph - 0.00 in Snow Light Snow
3:53 AM 28.9 °F 18.6 °F 26.1 °F 89% 29.53 in 3.0 mi WSW 12.7 mph - 0.00 in Snow Light Snow
4:05 AM 28.4 °F 17.5 °F 26.6 °F 93% 29.49 in 2.5 mi WSW 13.8 mph - 0.00 in Snow Light Snow
4:11 AM 28.4 °F 18.0 °F 26.6 °F 93% 29.48 in 3.0 mi WSW 12.7 mph - 0.00 in Snow Light Snow
4:53 AM 28.9 °F 18.2 °F 26.1 °F 89% 29.54 in 3.0 mi West 13.8 mph - 0.00 in Snow Light Snow
5:53 AM 30.0 °F 21.1 °F 25.0 °F 82% 29.55 in 6.0 mi West 10.4 mph - 0.01 in   Overcast
6:53 AM 28.9 °F 19.8 °F 25.0 °F 85% 29.58 in 6.0 mi West 10.4 mph - 0.00 in   Overcast
7:12 AM 28.4 °F 18.5 °F 24.8 °F 86% 29.54 in 6.0 mi WNW 11.5 mph - 0.00 in Snow Light Snow
7:36 AM 28.4 °F 18.0 °F 24.8 °F 86% 29.58 in 9.0 mi North 12.7 mph - 0.00 in Snow Light Snow
7:53 AM 27.0 °F 16.7 °F 23.0 °F 85% 29.64 in 8.0 mi North 11.5 mph - 0.00 in Snow Light Snow
8:53 AM 25.0 °F 14.8 °F 21.0 °F 85% 29.68 in 5.0 mi North 10.4 mph - 0.00 in Snow Light Snow
9:13 AM 23.0 °F 10.1 °F 19.4 °F 86% 29.65 in 3.0 mi North 15.0 mph - 0.00 in Snow Light Snow
9:53 AM 19.9 °F 8.6 °F 15.1 °F 81% 29.71 in 3.0 mi North 10.4 mph - 0.00 in Snow Light Snow
10:10 AM 19.4 °F 5.5 °F 14.0 °F 80% 29.67 in 3.0 mi North 15.0 mph - 0.00 in Snow Light Snow
10:25 AM 19.4 °F 6.0 °F 12.2 °F 74% 29.69 in 9.0 mi North 13.8 mph - 0.00 in   Overcast
10:53 AM 19.9 °F 7.9 °F 10.9 °F 68% 29.76 in 10.0 mi North 11.5 mph 20.7 mph 0.00 in   Overcast
11:37 AM 19.4 °F 5.5 °F 10.4 °F 68% 29.73 in 5.0 mi North 15.0 mph - 0.00 in Snow Light Snow
11:53 AM 19.0 °F 6.8 °F 10.9 °F 71% 29.79 in 4.0 mi North 11.5 mph - 0.00 in Snow Light Snow
12:53 PM 18.0 °F 5.4 °F 9.0 °F 68% 29.80 in 6.0 mi NNW 11.5 mph - 0.00 in Snow Light Snow
1:20 PM 17.6 °F 5.7 °F 8.6 °F 68% 29.76 in 2.0 mi NNW 10.4 mph - 0.00 in Snow Light Snow
1:21 PM 17.6 °F 5.7 °F 10.4 °F 73% 29.76 in 1.8 mi NNW 10.4 mph - 0.00 in Snow Light Snow
1:31 PM 17.6 °F 5.7 °F 10.4 °F 73% 29.77 in 1.0 mi NNW 10.4 mph - 0.00 in Snow Light Snow
1:44 PM 17.6 °F 5.0 °F 10.4 °F 73% 29.77 in 0.8 mi North 11.5 mph - 0.00 in Snow Light Snow
1:53 PM 17.1 °F 5.8 °F 10.9 °F 77% 29.83 in 0.8 mi NNW 9.2 mph - 0.00 in Snow Light Snow
2:15 PM 15.8 °F 2.7 °F 10.4 °F 79% 29.79 in 1.2 mi NNW 11.5 mph - 0.00 in Snow Light Snow
2:23 PM 15.8 °F 6.1 °F 10.4 °F 79% 29.79 in 1.5 mi NNW 6.9 mph - 0.00 in Snow Light Snow
2:53 PM 17.1 °F 6.6 °F 10.9 °F 77% 29.86 in 1.5 mi NNW 8.1 mph - 0.00 in Snow Light Snow
2:56 PM 17.6 °F 7.3 °F 10.4 °F 73% 29.81 in 3.0 mi NW 8.1 mph - 0.00 in Snow Light Snow
3:14 PM 17.6 °F 4.3 °F 10.4 °F 73% 29.82 in 9.0 mi NW 12.7 mph 18.4 mph 0.00 in   Overcast
3:36 PM 17.6 °F 5.7 °F 8.6 °F 68% 29.84 in 10.0 mi NNW 10.4 mph - 0.00 in   Overcast
3:53 PM 17.1 °F 3.6 °F 9.0 °F 71% 29.91 in 10.0 mi NNW 12.7 mph - N/A   Overcast
4:02 PM 17.6 °F 5.7 °F 8.6 °F 68% 29.86 in 7.0 mi NNW 10.4 mph - 0.00 in Snow Light Snow
4:53 PM 17.1 °F 5.0 °F 7.0 °F 65% 29.94 in 6.0 mi WNW 10.4 mph - 0.00 in Snow Light Snow
5:11 PM 17.6 °F 3.7 °F 6.8 °F 63% 29.90 in 7.0 mi WNW 13.8 mph - 0.00 in Snow Light Snow
5:28 PM 17.6 °F 4.3 °F 6.8 °F 63% 29.91 in 9.0 mi WNW 12.7 mph - 0.00 in   Mostly Cloudy
5:53 PM 16.0 °F 2.3 °F 5.0 °F 62% 29.97 in 10.0 mi WNW 12.7 mph - 0.00 in   Overcast
6:06 PM 15.8 °F -0.2 °F 3.2 °F 58% 29.93 in 10.0 mi NW 17.3 mph - 0.00 in Snow Light Snow
6:38 PM 15.8 °F -0.6 °F 3.2 °F 58% 29.94 in 10.0 mi WNW 18.4 mph - 0.00 in   Overcast
6:53 PM 15.1 °F 1.1 °F 3.9 °F 61% 30.01 in 10.0 mi WNW 12.7 mph - N/A   Overcast
7:51 PM 15.8 °F 2.1 °F 3.2 °F 58% 29.97 in 10.0 mi NNW 12.7 mph - 0.00 in Snow Light Snow
7:53 PM 14.0 °F -0.8 °F 5.0 °F 67% 30.03 in 9.0 mi NNW 13.8 mph - 0.00 in Snow Light Snow
8:53 PM 12.9 °F -1.6 °F 3.0 °F 65% 30.06 in 8.0 mi NNW 12.7 mph - 0.00 in Snow Light Snow
9:47 PM 12.2 °F -2.5 °F 1.4 °F 62% 30.01 in 9.0 mi NW 12.7 mph - 0.00 in   Overcast
9:53 PM 12.0 °F -2.0 °F -0.0 °F 59% 30.08 in 10.0 mi NW 11.5 mph - 0.00 in   Overcast
10:53 PM 12.0 °F 1.5 °F 1.9 °F 64% 30.09 in 10.0 mi North 6.9 mph - N/A   Overcast
11:53 PM 10.9 °F -3.4 °F 3.0 °F 70% 30.10 in 9.0 mi NNE 11.5 mph - 0.00 in Snow Light Snow